Time,TemperatureF,DewpointF,PressureIn,WindDirection,WindDirectionDegrees,WindSpeedMPH,WindSpeedGustMPH,Humidity,HourlyPrecipIn,Conditions,Clouds,dailyrainin,SoftwareType,DateUTC
2014-03-22 00:00:00,67.9,65.5,29.96,ESE,106,1.0,2.0,92,0.00,,,0.00,Wunderground v.1.15,2014-03-22 05:00:00,
2014-03-22 00:10:00,67.9,65.8,29.96,ESE,110,2.0,4.0,93,0.00,,,0.00,Wunderground v.1.15,2014-03-22 05:10:00,
2014-03-22 00:19:00,67.9,65.8,29.96,ENE,77,2.0,2.0,93,0.00,,,0.00,Wunderground v.1.15,2014-03-22 05:19:00,
2014-03-22 00:29:00,67.9,65.8,29.96,SSE,159,2.0,2.0,93,0.00,,,0.00,Wunderground v.1.15,2014-03-22 05:29:00,
2014-03-22 00:40:00,67.9,65.8,29.96,ESE,115,2.0,2.0,93,0.00,,,0.00,Wunderground v.1.15,2014-03-22 05:40:00,
2014-03-22 00:50:00,67.9,65.8,29.96,ESE,104,2.0,2.0,93,0.00,,,0.00,Wunderground v.1.15,2014-03-22 05:50:00,
2014-03-22 00:59:00,67.9,65.8,29.95,ESE,110,2.0,3.0,93,0.00,,,0.00,Wunderground v.1.15,2014-03-22 05:59:00,
2014-03-22 01:09:00,67.9,65.8,29.95,SSW,203,2.0,2.0,93,0.00,,,0.00,Wunderground v.1.15,2014-03-22 06:09:00,
2014-03-22 01:19:00,67.9,65.8,29.96,SW,225,1.0,1.0,93,0.00,,,0.00,Wunderground v.1.15,2014-03-22 06:19:00,
2014-03-22 01:29:00,67.8,65.7,29.96,SE,141,1.0,1.0,93,0.00,,,0.00,Wunderground v.1.15,2014-03-22 06:29:00,
2014-03-22 01:39:00,67.8,66.0,29.96,SSE,163,1.0,1.0,94,0.00,,,0.00,Wunderground v.1.15,2014-03-22 06:39:00,
2014-03-22 01:49:00,67.7,65.9,29.95,ESE,113,0.0,0.0,94,0.00,,,0.00,Wunderground v.1.15,2014-03-22 06:49:00,
2014-03-22 02:00:00,67.5,65.7,29.94,SSW,194,1.0,2.0,94,0.00,,,0.00,Wunderground v.1.15,2014-03-22 07:00:00,
2014-03-22 02:09:00,67.1,65.3,29.93,SW,214,2.0,2.0,94,0.00,,,0.00,Wunderground v.1.15,2014-03-22 07:09:00,
2014-03-22 02:20:00,66.9,65.1,29.93,SSE,163,1.0,1.0,94,0.00,,,0.00,Wunderground v.1.15,2014-03-22 07:20:00,
2014-03-22 02:30:00,66.7,65.2,29.93,SSE,158,1.0,1.0,95,0.00,,,0.00,Wunderground v.1.15,2014-03-22 07:30:00,
2014-03-22 02:39:00,66.5,65.0,29.92,SE,129,1.0,1.0,95,0.00,,,0.00,Wunderground v.1.15,2014-03-22 07:39:00,
2014-03-22 02:49:00,66.4,64.9,29.92,SSW,201,0.0,1.0,95,0.00,,,0.00,Wunderground v.1.15,2014-03-22 07:49:00,
2014-03-22 02:59:00,66.3,65.1,29.92,SE,140,0.0,0.0,96,0.00,,,0.00,Wunderground v.1.15,2014-03-22 07:59:00,
2014-03-22 03:09:00,66.3,65.1,29.92,SE,131,0.0,0.0,96,0.00,,,0.00,Wunderground v.1.15,2014-03-22 08:09:00,
2014-03-22 03:19:00,66.4,65.2,29.93,South,187,0.0,0.0,96,0.00,,,0.00,Wunderground v.1.15,2014-03-22 08:19:00,
2014-03-22 03:29:00,66.5,65.3,29.92,South,188,0.0,0.0,96,0.00,,,0.00,Wunderground v.1.15,2014-03-22 08:29:00,
2014-03-22 03:39:00,66.5,65.3,29.93,ENE,68,0.0,0.0,96,0.00,,,0.00,Wunderground v.1.15,2014-03-22 08:39:00,
2014-03-22 03:50:00,66.6,65.4,29.93,ENE,68,0.0,0.0,96,0.00,,,0.00,Wunderground v.1.15,2014-03-22 08:50:00,
2014-03-22 04:00:00,66.7,65.8,29.93,SE,127,0.0,0.0,97,0.00,,,0.00,Wunderground v.1.15,2014-03-22 09:00:00,
2014-03-22 04:09:00,66.9,66.0,29.92,South,179,1.0,1.0,97,0.00,,,0.00,Wunderground v.1.15,2014-03-22 09:09:00,
2014-03-22 04:19:00,66.9,65.7,29.92,South,172,0.0,0.0,96,0.00,,,0.00,Wunderground v.1.15,2014-03-22 09:19:00,
2014-03-22 04:30:00,67.0,66.1,29.92,WSW,239,0.0,0.0,97,0.00,,,0.00,Wunderground v.1.15,2014-03-22 09:30:00,
2014-03-22 04:39:00,67.1,66.2,29.92,South,188,0.0,0.0,97,0.00,,,0.00,Wunderground v.1.15,2014-03-22 09:39:00,
2014-03-22 04:50:00,67.3,66.4,29.92,South,181,0.0,0.0,97,0.00,,,0.00,Wunderground v.1.15,2014-03-22 09:50:00,
2014-03-22 05:00:00,67.4,66.5,29.92,East,89,0.0,0.0,97,0.00,,,0.00,Wunderground v.1.15,2014-03-22 10:00:00,
2014-03-22 05:09:00,67.5,66.6,29.93,SSE,156,0.0,0.0,97,0.00,,,0.00,Wunderground v.1.15,2014-03-22 10:09:00,
2014-03-22 05:19:00,67.6,66.7,29.93,ESE,105,0.0,0.0,97,0.00,,,0.00,Wunderground v.1.15,2014-03-22 10:19:00,
2014-03-22 05:30:00,67.7,66.8,29.93,East,101,0.0,0.0,97,0.00,,,0.00,Wunderground v.1.15,2014-03-22 10:30:00,
2014-03-22 05:39:00,67.8,66.9,29.93,SSE,159,0.0,0.0,97,0.00,,,0.00,Wunderground v.1.15,2014-03-22 10:39:00,
2014-03-22 05:49:00,67.9,67.0,29.93,ESE,121,0.0,0.0,97,0.00,,,0.00,Wunderground v.1.15,2014-03-22 10:49:00,
2014-03-22 06:00:00,68.0,67.1,29.94,SSE,166,0.0,0.0,97,0.00,,,0.00,Wunderground v.1.15,2014-03-22 11:00:00,
2014-03-22 06:09:00,68.0,67.1,29.94,ESE,103,0.0,0.0,97,0.00,,,0.00,Wunderground v.1.15,2014-03-22 11:09:00,
2014-03-22 06:19:00,68.0,67.1,29.94,ESE,118,0.0,0.0,97,0.00,,,0.00,Wunderground v.1.15,2014-03-22 11:19:00,
2014-03-22 06:29:00,68.0,67.1,29.95,SE,124,0.0,0.0,97,0.00,,,0.00,Wunderground v.1.15,2014-03-22 11:29:00,
2014-03-22 06:39:00,68.0,67.1,29.95,SSE,155,0.0,0.0,97,0.00,,,0.00,Wunderground v.1.15,2014-03-22 11:39:00,
2014-03-22 06:50:00,68.1,67.2,29.95,ESE,110,0.0,0.0,97,0.00,,,0.00,Wunderground v.1.15,2014-03-22 11:50:00,
2014-03-22 07:00:00,68.1,67.2,29.95,South,191,0.0,0.0,97,0.00,,,0.00,Wunderground v.1.15,2014-03-22 12:00:00,
2014-03-22 07:09:00,68.1,67.5,29.96,East,94,0.0,0.0,98,0.00,,,0.00,Wunderground v.1.15,2014-03-22 12:09:00,
2014-03-22 07:19:00,68.2,67.6,29.95,SE,131,0.0,0.0,98,0.00,,,0.00,Wunderground v.1.15,2014-03-22 12:19:00,
2014-03-22 07:29:00,68.2,67.6,29.96,SE,124,0.0,2.0,98,0.00,,,0.00,Wunderground v.1.15,2014-03-22 12:29:00,
2014-03-22 07:39:00,68.2,67.6,29.96,ESE,113,0.0,0.0,98,0.00,,,0.00,Wunderground v.1.15,2014-03-22 12:39:00,
2014-03-22 07:49:00,68.5,67.9,29.96,SE,134,0.0,0.0,98,0.00,,,0.00,Wunderground v.1.15,2014-03-22 12:49:00,
2014-03-22 08:00:00,68.5,67.9,29.96,East,93,0.0,0.0,98,0.00,,,0.00,Wunderground v.1.15,2014-03-22 13:00:00,
2014-03-22 08:09:00,68.5,67.9,29.96,East,91,0.0,0.0,98,0.00,,,0.00,Wunderground v.1.15,2014-03-22 13:09:00,
2014-03-22 08:19:00,68.6,68.0,29.97,ESE,116,0.0,0.0,98,0.00,,,0.00,Wunderground v.1.15,2014-03-22 13:19:00,
2014-03-22 08:29:00,68.8,68.2,29.97,ESE,116,0.0,0.0,98,0.00,,,0.00,Wunderground v.1.15,2014-03-22 13:29:00,
2014-03-22 08:39:00,68.7,68.1,29.97,East,87,0.0,0.0,98,0.00,,,0.00,Wunderground v.1.15,2014-03-22 13:39:00,
2014-03-22 08:49:00,69.0,68.4,29.98,ESE,110,0.0,0.0,98,0.00,,,0.00,Wunderground v.1.15,2014-03-22 13:49:00,
2014-03-22 09:00:00,69.1,68.5,29.97,SSW,204,0.0,0.0,98,0.00,,,0.00,Wunderground v.1.15,2014-03-22 14:00:00,
2014-03-22 09:10:00,69.3,68.7,29.98,SW,214,0.0,1.0,98,0.00,,,0.00,Wunderground v.1.15,2014-03-22 14:10:00,
2014-03-22 09:19:00,69.7,69.4,29.98,West,280,0.0,0.0,99,0.00,,,0.00,Wunderground v.1.15,2014-03-22 14:19:00,
2014-03-22 09:29:00,69.9,69.6,29.99,WSW,246,0.0,0.0,99,0.00,,,0.00,Wunderground v.1.15,2014-03-22 14:29:00,
2014-03-22 09:40:00,70.3,70.0,29.99,SSW,197,0.0,0.0,99,0.00,,,0.00,Wunderground v.1.15,2014-03-22 14:40:00,
2014-03-22 09:49:00,70.5,69.9,29.98,ESE,110,1.0,1.0,98,0.00,,,0.00,Wunderground v.1.15,2014-03-22 14:49:00,
2014-03-22 10:00:00,70.5,69.9,29.99,ENE,74,1.0,1.0,98,0.00,,,0.00,Wunderground v.1.15,2014-03-22 15:00:00,
2014-03-22 10:09:00,70.6,69.7,30.00,South,188,1.0,1.0,97,0.00,,,0.00,Wunderground v.1.15,2014-03-22 15:09:00,
2014-03-22 10:19:00,70.5,69.3,30.01,ENE,76,0.0,1.0,96,0.00,,,0.00,Wunderground v.1.15,2014-03-22 15:19:00,
2014-03-22 10:29:00,70.7,69.5,30.01,ESE,111,0.0,0.0,96,0.00,,,0.00,Wunderground v.1.15,2014-03-22 15:29:00,
2014-03-22 10:40:00,70.8,69.6,30.01,ESE,121,0.0,3.0,96,0.00,,,0.00,Wunderground v.1.15,2014-03-22 15:40:00,
2014-03-22 10:49:00,71.1,69.9,30.01,SSE,153,1.0,1.0,96,0.00,,,0.00,Wunderground v.1.15,2014-03-22 15:49:00,
2014-03-22 10:59:00,71.4,69.9,30.01,ESE,105,1.0,1.0,95,0.00,,,0.00,Wunderground v.1.15,2014-03-22 15:59:00,
2014-03-22 11:09:00,72.4,70.6,30.01,WNW,295,0.0,0.0,94,0.00,,,0.00,Wunderground v.1.15,2014-03-22 16:09:00,
2014-03-22 11:19:00,73.6,71.1,30.01,SE,128,1.0,1.0,92,0.00,,,0.00,Wunderground v.1.15,2014-03-22 16:19:00,
2014-03-22 11:29:00,74.1,71.0,30.01,SW,216,1.0,1.0,90,0.00,,,0.00,Wunderground v.1.15,2014-03-22 16:29:00,
2014-03-22 11:39:00,74.6,71.5,30.00,SSW,212,0.0,2.0,90,0.00,,,0.00,Wunderground v.1.15,2014-03-22 16:39:00,
2014-03-22 11:49:00,74.9,71.4,30.00,West,259,1.0,1.0,89,0.00,,,0.00,Wunderground v.1.15,2014-03-22 16:49:00,
2014-03-22 12:00:00,75.1,71.3,30.00,SW,221,1.0,1.0,88,0.00,,,0.00,Wunderground v.1.15,2014-03-22 17:00:00,
2014-03-22 12:09:00,75.4,71.6,30.00,SE,128,1.0,1.0,88,0.00,,,0.00,Wunderground v.1.15,2014-03-22 17:09:00,
2014-03-22 12:19:00,75.6,71.5,30.00,SE,136,1.0,1.0,87,0.00,,,0.00,Wunderground v.1.15,2014-03-22 17:19:00,
2014-03-22 12:29:00,76.2,71.7,29.99,ESE,103,1.0,2.0,86,0.00,,,0.00,Wunderground v.1.15,2014-03-22 17:29:00,
2014-03-22 12:40:00,77.4,72.2,29.99,SW,217,1.0,1.0,84,0.00,,,0.00,Wunderground v.1.15,2014-03-22 17:40:00,
2014-03-22 12:49:00,77.5,72.3,29.99,ESE,105,1.0,2.0,84,0.00,,,0.00,Wunderground v.1.15,2014-03-22 17:49:00,
2014-03-22 12:59:00,78.0,72.8,29.98,ENE,60,1.0,4.0,84,0.00,,,0.00,Wunderground v.1.15,2014-03-22 17:59:00,
2014-03-22 13:09:00,78.3,72.3,29.98,ESE,105,3.0,3.0,82,0.00,,,0.00,Wunderground v.1.15,2014-03-22 18:09:00,
2014-03-22 13:19:00,79.3,72.2,29.98,East,90,1.0,1.0,79,0.00,,,0.00,Wunderground v.1.15,2014-03-22 18:19:00,
2014-03-22 13:29:00,78.7,72.4,29.98,SE,136,1.0,2.0,81,0.00,,,0.00,Wunderground v.1.15,2014-03-22 18:29:00,
2014-03-22 13:39:00,78.7,72.4,29.97,ESE,119,1.0,4.0,81,0.00,,,0.00,Wunderground v.1.15,2014-03-22 18:39:00,
2014-03-22 13:49:00,77.4,72.2,29.97,South,174,3.0,3.0,84,0.00,,,0.00,Wunderground v.1.15,2014-03-22 18:49:00,
2014-03-22 14:00:00,77.8,71.9,29.96,SE,143,2.0,2.0,82,0.00,,,0.00,Wunderground v.1.15,2014-03-22 19:00:00,
2014-03-22 14:09:00,77.5,71.9,29.97,ENE,60,2.0,5.0,83,0.00,,,0.00,Wunderground v.1.15,2014-03-22 19:09:00,
2014-03-22 14:20:00,77.5,72.3,29.96,SW,231,3.0,3.0,84,0.00,,,0.00,Wunderground v.1.15,2014-03-22 19:20:00,
2014-03-22 14:29:00,77.9,71.6,29.97,East,96,2.0,5.0,81,0.00,,,0.00,Wunderground v.1.15,2014-03-22 19:29:00,
2014-03-22 14:40:00,76.5,71.3,29.96,SSW,197,2.0,2.0,84,0.00,,,0.00,Wunderground v.1.15,2014-03-22 19:40:00,
2014-03-22 14:49:00,75.9,71.1,29.96,SW,218,3.0,3.0,85,0.00,,,0.00,Wunderground v.1.15,2014-03-22 19:49:00,
2014-03-22 14:59:00,75.8,71.0,29.95,ENE,77,2.0,2.0,85,0.00,,,0.00,Wunderground v.1.15,2014-03-22 19:59:00,
2014-03-22 15:10:00,75.7,70.9,29.96,East,82,2.0,2.0,85,0.00,,,0.00,Wunderground v.1.15,2014-03-22 20:10:00,
2014-03-22 15:19:00,75.6,71.1,29.95,SW,228,2.0,2.0,86,0.00,,,0.00,Wunderground v.1.15,2014-03-22 20:19:00,
2014-03-22 15:29:00,75.9,71.1,29.96,NW,323,1.0,1.0,85,0.00,,,0.00,Wunderground v.1.15,2014-03-22 20:29:00,
2014-03-22 15:39:00,75.8,71.0,29.94,ESE,121,1.0,3.0,85,0.00,,,0.00,Wunderground v.1.15,2014-03-22 20:39:00,
2014-03-22 15:49:00,75.5,70.7,29.94,SE,134,3.0,3.0,85,0.00,,,0.00,Wunderground v.1.15,2014-03-22 20:49:00,
2014-03-22 16:00:00,75.6,70.8,29.95,ESE,107,2.0,2.0,85,0.00,,,0.00,Wunderground v.1.15,2014-03-22 21:00:00,
2014-03-22 16:09:00,75.5,70.7,29.95,SE,136,2.0,2.0,85,0.00,,,0.00,Wunderground v.1.15,2014-03-22 21:09:00,
2014-03-22 16:19:00,75.1,70.6,29.95,SE,138,2.0,4.0,86,0.00,,,0.00,Wunderground v.1.15,2014-03-22 21:19:00,
2014-03-22 16:29:00,74.9,70.8,29.94,SW,217,2.0,2.0,87,0.00,,,0.00,Wunderground v.1.15,2014-03-22 21:29:00,
2014-03-22 16:40:00,74.7,70.6,29.95,SE,134,2.0,2.0,87,0.00,,,0.00,Wunderground v.1.15,2014-03-22 21:40:00,
2014-03-22 16:49:00,74.5,70.4,29.94,East,101,1.0,1.0,87,0.00,,,0.00,Wunderground v.1.15,2014-03-22 21:49:00,
2014-03-22 16:59:00,74.3,70.5,29.93,ENE,67,2.0,2.0,88,0.00,,,0.00,Wunderground v.1.15,2014-03-22 21:59:00,
2014-03-22 17:10:00,73.7,69.9,29.94,SE,138,3.0,3.0,88,0.00,,,0.00,Wunderground v.1.15,2014-03-22 22:10:00,
2014-03-22 17:20:00,73.4,70.0,29.94,SSW,204,2.0,2.0,89,0.00,,,0.00,Wunderground v.1.15,2014-03-22 22:20:00,
2014-03-22 17:29:00,73.4,70.0,29.94,East,94,2.0,2.0,89,0.00,,,0.00,Wunderground v.1.15,2014-03-22 22:29:00,
2014-03-22 17:40:00,73.1,69.7,29.93,SSE,150,2.0,2.0,89,0.00,,,0.00,Wunderground v.1.15,2014-03-22 22:40:00,
2014-03-22 17:49:00,73.1,69.7,29.93,West,273,1.0,1.0,89,0.00,,,0.00,Wunderground v.1.15,2014-03-22 22:49:00,
2014-03-22 18:00:00,73.1,69.7,29.94,ESE,114,1.0,1.0,89,0.00,,,0.00,Wunderground v.1.15,2014-03-22 23:00:00,
2014-03-22 18:10:00,72.9,69.5,29.94,SE,127,1.0,1.0,89,0.00,,,0.00,Wunderground v.1.15,2014-03-22 23:10:00,
2014-03-22 18:20:00,72.6,69.5,29.94,East,97,1.0,1.0,90,0.00,,,0.00,Wunderground v.1.15,2014-03-22 23:20:00,
2014-03-22 18:29:00,72.4,69.3,29.94,SE,127,1.0,1.0,90,0.00,,,0.00,Wunderground v.1.15,2014-03-22 23:29:00,
2014-03-22 18:39:00,72.2,69.4,29.94,ESE,117,1.0,1.0,91,0.00,,,0.00,Wunderground v.1.15,2014-03-22 23:39:00,
2014-03-22 18:50:00,72.0,69.2,29.95,ESE,103,1.0,1.0,91,0.00,,,0.00,Wunderground v.1.15,2014-03-22 23:50:00,
2014-03-22 19:00:00,71.8,69.0,29.95,East,79,1.0,1.0,91,0.00,,,0.00,Wunderground v.1.15,2014-03-23 00:00:00,
2014-03-22 19:10:00,71.5,68.7,29.95,East,93,1.0,1.0,91,0.00,,,0.00,Wunderground v.1.15,2014-03-23 00:10:00,
2014-03-22 19:19:00,71.3,68.9,29.96,ESE,110,0.0,0.0,92,0.00,,,0.00,Wunderground v.1.15,2014-03-23 00:19:00,
2014-03-22 19:29:00,71.1,68.7,29.96,East,101,0.0,0.0,92,0.00,,,0.00,Wunderground v.1.15,2014-03-23 00:29:00,
2014-03-22 19:39:00,70.8,68.4,29.96,East,100,0.0,0.0,92,0.00,,,0.00,Wunderground v.1.15,2014-03-23 00:39:00,
2014-03-22 19:49:00,70.7,68.6,29.96,SE,132,0.0,0.0,93,0.00,,,0.00,Wunderground v.1.15,2014-03-23 00:49:00,
2014-03-22 20:00:00,70.5,68.4,29.96,SE,127,0.0,0.0,93,0.00,,,0.00,Wunderground v.1.15,2014-03-23 01:00:00,
2014-03-22 20:09:00,70.3,68.2,29.96,East,82,1.0,1.0,93,0.00,,,0.00,Wunderground v.1.15,2014-03-23 01:09:00,
2014-03-22 20:19:00,70.0,67.9,29.96,East,83,0.0,0.0,93,0.00,,,0.00,Wunderground v.1.15,2014-03-23 01:19:00,
2014-03-22 20:29:00,69.7,67.9,29.96,ESE,114,0.0,1.0,94,0.00,,,0.00,Wunderground v.1.15,2014-03-23 01:29:00,
2014-03-22 20:40:00,69.5,67.7,29.97,SW,217,1.0,1.0,94,0.00,,,0.00,Wunderground v.1.15,2014-03-23 01:40:00,
2014-03-22 20:49:00,69.3,67.5,29.97,ESE,118,1.0,2.0,94,0.00,,,0.00,Wunderground v.1.15,2014-03-23 01:49:00,
2014-03-22 21:00:00,69.1,67.6,29.97,ENE,75,1.0,1.0,95,0.00,,,0.00,Wunderground v.1.15,2014-03-23 02:00:00,
2014-03-22 21:09:00,69.1,67.6,29.97,SE,143,0.0,0.0,95,0.00,,,0.00,Wunderground v.1.15,2014-03-23 02:09:00,
2014-03-22 21:20:00,69.0,67.5,29.97,East,97,0.0,0.0,95,0.00,,,0.00,Wunderground v.1.15,2014-03-23 02:20:00,
2014-03-22 21:29:00,68.9,67.4,29.97,East,96,0.0,0.0,95,0.00,,,0.00,Wunderground v.1.15,2014-03-23 02:29:00,
2014-03-22 21:39:00,68.8,67.6,29.98,ESE,118,0.0,0.0,96,0.00,,,0.00,Wunderground v.1.15,2014-03-23 02:39:00,
2014-03-22 21:50:00,68.6,67.4,29.98,SE,124,1.0,1.0,96,0.00,,,0.00,Wunderground v.1.15,2014-03-23 02:50:00,
2014-03-22 22:00:00,68.6,67.4,29.98,ESE,108,0.0,0.0,96,0.00,,,0.00,Wunderground v.1.15,2014-03-23 03:00:00,
2014-03-22 22:09:00,68.5,67.6,29.98,SSE,159,1.0,1.0,97,0.00,,,0.00,Wunderground v.1.15,2014-03-23 03:09:00,
2014-03-22 22:20:00,68.4,67.5,29.98,SSE,163,0.0,1.0,97,0.00,,,0.00,Wunderground v.1.15,2014-03-23 03:20:00,
2014-03-22 22:30:00,68.3,67.4,29.99,ESE,108,1.0,1.0,97,0.00,,,0.00,Wunderground v.1.15,2014-03-23 03:30:00,
2014-03-22 22:39:00,68.1,67.2,29.99,ENE,61,1.0,1.0,97,0.00,,,0.00,Wunderground v.1.15,2014-03-23 03:39:00,
2014-03-22 22:49:00,68.1,67.2,29.99,ESE,117,0.0,1.0,97,0.00,,,0.00,Wunderground v.1.15,2014-03-23 03:49:00,
2014-03-22 23:00:00,68.1,67.2,30.00,East,98,0.0,0.0,97,0.00,,,0.00,Wunderground v.1.15,2014-03-23 04:00:00,
2014-03-22 23:09:00,68.0,67.1,30.00,ESE,111,0.0,0.0,97,0.00,,,0.00,Wunderground v.1.15,2014-03-23 04:09:00,
2014-03-22 23:20:00,68.1,67.5,30.00,ESE,112,0.0,0.0,98,0.00,,,0.00,Wunderground v.1.15,2014-03-23 04:20:00,
2014-03-22 23:29:00,68.1,67.5,30.00,ESE,111,0.0,0.0,98,0.00,,,0.00,Wunderground v.1.15,2014-03-23 04:29:00,
2014-03-22 23:39:00,68.0,67.4,30.00,ESE,110,0.0,0.0,98,0.00,,,0.00,Wunderground v.1.15,2014-03-23 04:39:00,
2014-03-22 23:49:00,67.8,67.2,30.00,ESE,113,0.0,0.0,98,0.00,,,0.00,Wunderground v.1.15,2014-03-23 04:49:00,
2014-03-22 23:59:00,67.7,67.1,30.00,East,97,0.0,0.0,98,0.00,,,0.00,Wunderground v.1.15,2014-03-23 04:59:00,